When you browse on this site, cookies collect data to enhance your experience and personalize the content and advertising you see.
Visit our Privacy Policy to learn more. By continuing to use the site, you agree to this use of cookies and data.
  • In United Kingdom
  • List of Countries
  • For 7 days
  • Water Temperature
  • Weather Map
  • Weather Widgets
  • user-avatar
    Login

    Hourly Weather Caransebes

    Today, 18 September, Wednesday

    Time Temperature Precipitation Wind Pressure Humidity
    00:00 +18°C° 0 mm 1 mps 735 mmHg 71%
    01:00 +18°C° 0 mm 1 mps 735 mmHg 76%
    02:00 +18°C° 0.5 mm 1 mps 735 mmHg 82%
    03:00 +16°C° 0.5 mm 1 mps 735 mmHg 88%
    04:00 +16°C° 0.5 mm 2 mps 735 mmHg 93%
    05:00 +15°C° 0.8 mm 2 mps 736 mmHg 92%
    06:00 +15°C° 0.8 mm 2 mps 737 mmHg 91%
    07:00 +15°C° 0.8 mm 2 mps 738 mmHg 90%
    08:00 +15°C° 0.1 mm 2 mps 738 mmHg 82%
    09:00 +14°C° 0.1 mm 3 mps 739 mmHg 74%
    10:00 +16°C° 0.1 mm 3 mps 739 mmHg 66%
    11:00 +17°C° 0 mm 4 mps 740 mmHg 53%
    12:00 +19°C° 0 mm 4 mps 740 mmHg 39%
    13:00 +20°C° 0 mm 5 mps 740 mmHg 26%
    14:00 +19°C° 0 mm 4 mps 740 mmHg 29%
    15:00 +19°C° 0 mm 4 mps 740 mmHg 31%
    16:00 +18°C° 0 mm 3 mps 740 mmHg 33%
    17:00 +16°C° 0 mm 3 mps 740 mmHg 43%
    18:00 +13°C° 0 mm 2 mps 740 mmHg 52%
    19:00 +11°C° 0 mm 1 mps 740 mmHg 62%
    20:00 +11°C° 0 mm 1 mps 741 mmHg 63%
    21:00 +10°C° 0 mm 1 mps 741 mmHg 65%
    22:00 +10°C° 0 mm 1 mps 741 mmHg 67%
    23:00 +10°C° 0 mm 1 mps 741 mmHg 65%

    Tomorrow, 19 September, Thursday

    Time Temperature Precipitation Wind Pressure Humidity
    00:00 +10°C° 0 mm 1 mps 741 mmHg 63%
    01:00 +9°C° 0 mm 0 mps 741 mmHg 61%
    02:00 +8°C° 0 mm 0 mps 741 mmHg 59%
    03:00 +8°C° 0 mm 0 mps 741 mmHg 57%
    04:00 +8°C° 0 mm 0 mps 741 mmHg 56%
    05:00 +9°C° 0 mm 0 mps 741 mmHg 52%
    06:00 +11°C° 0 mm 0 mps 741 mmHg 48%
    07:00 +12°C° 0 mm 0 mps 742 mmHg 44%
    08:00 +15°C° 0 mm 1 mps 742 mmHg 39%
    09:00 +18°C° 0 mm 1 mps 742 mmHg 33%
    10:00 +19°C° 0 mm 2 mps 742 mmHg 27%
    11:00 +19°C° 0 mm 2 mps 742 mmHg 27%
    12:00 +20°C° 0 mm 3 mps 742 mmHg 26%
    13:00 +20°C° 0 mm 3 mps 742 mmHg 26%
    14:00 +19°C° 0 mm 3 mps 742 mmHg 28%
    15:00 +19°C° 0 mm 4 mps 742 mmHg 30%
    16:00 +18°C° 0 mm 4 mps 741 mmHg 31%
    17:00 +16°C° 0 mm 3 mps 742 mmHg 38%
    18:00 +13°C° 0 mm 2 mps 742 mmHg 45%
    19:00 +10°C° 0 mm 1 mps 742 mmHg 52%
    20:00 +10°C° 0 mm 1 mps 742 mmHg 54%
    21:00 +9°C° 0 mm 1 mps 742 mmHg 56%
    22:00 +8°C° 0 mm 1 mps 742 mmHg 58%
    23:00 +8°C° 0 mm 1 mps 742 mmHg 60%

    Day after tomorrow, 20 September, Friday

    Time Temperature Precipitation Wind Pressure Humidity
    00:00 +8°C° 0 mm 1 mps 742 mmHg 62%
    01:00 +7°C° 0 mm 1 mps 742 mmHg 64%
    02:00 +7°C° 0 mm 1 mps 742 mmHg 66%
    03:00 +7°C° 0 mm 1 mps 742 mmHg 68%
    04:00 +6°C° 0 mm 1 mps 743 mmHg 70%
    05:00 +8°C° 0 mm 1 mps 743 mmHg 65%
    06:00 +9°C° 0 mm 1 mps 743 mmHg 61%
    07:00 +10°C° 0 mm 1 mps 743 mmHg 56%
    08:00 +12°C° 0 mm 1 mps 743 mmHg 49%
    09:00 +14°C° 0 mm 2 mps 744 mmHg 42%
    10:00 +16°C° 0 mm 2 mps 744 mmHg 35%
    11:00 +17°C° 0 mm 3 mps 744 mmHg 32%
    12:00 +18°C° 0 mm 3 mps 743 mmHg 29%
    13:00 +19°C° 0 mm 3 mps 743 mmHg 26%
    14:00 +19°C° 0 mm 4 mps 743 mmHg 27%
    15:00 +18°C° 0 mm 4 mps 743 mmHg 29%
    16:00 +18°C° 0 mm 4 mps 743 mmHg 31%
    17:00 +14°C° 0 mm 3 mps 743 mmHg 36%
    18:00 +13°C° 0 mm 2 mps 743 mmHg 42%
    19:00 +9°C° 0 mm 2 mps 743 mmHg 47%
    20:00 +10°C° 0 mm 1 mps 744 mmHg 48%
    21:00 +9°C° 0 mm 1 mps 744 mmHg 49%
    22:00 +9°C° 0 mm 1 mps 744 mmHg 49%
    23:00 +8°C° 0 mm 1 mps 744 mmHg 50%

    21 September, Saturday

    Time Temperature Precipitation Wind Pressure Humidity
    00:00 +8°C° 0 mm 1 mps 744 mmHg 50%
    01:00 +8°C° 0 mm 1 mps 744 mmHg 51%
    02:00 +8°C° 0 mm 1 mps 744 mmHg 51%
    03:00 +8°C° 0 mm 1 mps 744 mmHg 51%
    04:00 +8°C° 0 mm 1 mps 744 mmHg 51%
    05:00 +9°C° 0 mm 1 mps 744 mmHg 48%
    06:00 +11°C° 0 mm 1 mps 745 mmHg 46%
    07:00 +12°C° 0 mm 1 mps 745 mmHg 43%
    08:00 +15°C° 0 mm 1 mps 745 mmHg 38%
    09:00 +18°C° 0 mm 1 mps 745 mmHg 33%
    10:00 +21°C° 0 mm 1 mps 745 mmHg 28%
    11:00 +22°C° 0 mm 1 mps 745 mmHg 27%
    12:00 +23°C° 0 mm 1 mps 745 mmHg 25%
    13:00 +24°C° 0 mm 1 mps 744 mmHg 24%
    14:00 +23°C° 0 mm 1 mps 744 mmHg 26%
    15:00 +22°C° 0 mm 1 mps 744 mmHg 27%
    16:00 +22°C° 0 mm 1 mps 743 mmHg 29%
    17:00 +19°C° 0 mm 1 mps 743 mmHg 34%
    18:00 +16°C° 0 mm 1 mps 743 mmHg 39%
    19:00 +13°C° 0 mm 1 mps 743 mmHg 45%
    20:00 +13°C° 0 mm 1 mps 743 mmHg 46%
    21:00 +12°C° 0 mm 2 mps 743 mmHg 46%
    22:00 +12°C° 0 mm 2 mps 743 mmHg 47%
    23:00 +12°C° 0 mm 2 mps 743 mmHg 47%

    22 September, Sunday

    Time Temperature Precipitation Wind Pressure Humidity
    00:00 +12°C° 0 mm 2 mps 743 mmHg 47%
    01:00 +10°C° 0 mm 2 mps 743 mmHg 47%
    02:00 +10°C° 0 mm 2 mps 742 mmHg 47%
    03:00 +10°C° 0 mm 2 mps 742 mmHg 48%
    04:00 +10°C° 0 mm 2 mps 742 mmHg 48%
    05:00 +12°C° 0 mm 2 mps 742 mmHg 46%
    06:00 +14°C° 0 mm 2 mps 742 mmHg 43%
    07:00 +15°C° 0 mm 2 mps 742 mmHg 40%
    08:00 +18°C° 0 mm 2 mps 742 mmHg 35%
    09:00 +21°C° 0 mm 2 mps 742 mmHg 30%
    10:00 +25°C° 0 mm 2 mps 742 mmHg 25%
    11:00 +25°C° 0 mm 2 mps 741 mmHg 23%
    12:00 +26°C° 0 mm 2 mps 741 mmHg 22%
    13:00 +27°C° 0 mm 2 mps 740 mmHg 21%
    14:00 +27°C° 0 mm 2 mps 740 mmHg 23%
    15:00 +26°C° 0 mm 2 mps 739 mmHg 25%
    16:00 +25°C° 0 mm 2 mps 738 mmHg 27%
    17:00 +23°C° 0 mm 2 mps 738 mmHg 31%
    18:00 +19°C° 0 mm 2 mps 738 mmHg 35%
    19:00 +17°C° 0 mm 2 mps 738 mmHg 39%
    20:00 +17°C° 0 mm 2 mps 738 mmHg 38%
    21:00 +17°C° 0 mm 2 mps 738 mmHg 36%
    22:00 +17°C° 0 mm 2 mps 738 mmHg 34%
    23:00 +18°C° 0 mm 2 mps 738 mmHg 33%

    23 September, Monday

    Time Temperature Precipitation Wind Pressure Humidity
    00:00 +18°C° 0 mm 2 mps 738 mmHg 32%
    01:00 +19°C° 0 mm 2 mps 737 mmHg 31%
    02:00 +19°C° 0 mm 2 mps 737 mmHg 33%
    03:00 +19°C° 0 mm 2 mps 737 mmHg 34%
    04:00 +18°C° 0 mm 2 mps 736 mmHg 35%
    05:00 +19°C° 0 mm 2 mps 736 mmHg 38%
    06:00 +21°C° 0 mm 1 mps 736 mmHg 40%
    07:00 +21°C° 0 mm 1 mps 736 mmHg 43%
    08:00 +22°C° 0 mm 1 mps 736 mmHg 41%
    09:00 +23°C° 0 mm 1 mps 736 mmHg 39%
    10:00 +24°C° 0 mm 1 mps 736 mmHg 37%
    11:00 +25°C° 0 mm 1 mps 736 mmHg 36%
    12:00 +26°C° 0 mm 1 mps 735 mmHg 36%
    13:00 +26°C° 0 mm 1 mps 735 mmHg 35%
    14:00 +26°C° 0 mm 1 mps 734 mmHg 38%
    15:00 +25°C° 0 mm 2 mps 734 mmHg 40%
    16:00 +24°C° 0 mm 2 mps 734 mmHg 43%
    17:00 +22°C° 0.3 mm 1 mps 734 mmHg 55%
    18:00 +20°C° 0.3 mm 1 mps 734 mmHg 68%
    19:00 +16°C° 0.3 mm 0 mps 734 mmHg 80%
    20:00 +15°C° 0.5 mm 0 mps 734 mmHg 84%
    21:00 +15°C° 0.5 mm 0 mps 734 mmHg 88%
    22:00 +15°C° 0.5 mm 0 mps 734 mmHg 92%
    23:00 +15°C° 0.1 mm 0 mps 734 mmHg 92%
    Show more